Back to catalog

ONEWEB-0294

AliveCommunicationsPO
NORAD 49083·PAYLOAD·🇬🇧 United Kingdom

Launched Aug 21, 2021 from Baikonur Cosmodrome

Loading…

Next Passes (next 24 hours)

TLE

FreshSource: CelesTrak SupGP

Epoch: Sep 14, 2026, 20:30 UTC

1 49083C 21075J   26257.85470324 -.00001684  00000+0 -46862-2 0  2579
2 49083  87.8980 332.8611 0001597  97.2973   5.6129 13.12441483    14

Track ONEWEB-0294 in real time with AllMySat

Download on the App Store